Location: Songkhla
(7.2000°N, 100.6000°E)
Time: 14:36:11
(UTC+07:00)

ISS - All Passes

Search period start: 20 March 2019 00:00
Search period end: 30 March 2019 00:00
Orbit: 406 x 411 km, 51.6° (Epoch: 20 March)

Date Brightness Start Highest point End Pass type
(mag) Time Alt. Az. Time Alt. Az. Time Alt. Az.
20 Mar - 06:09:05 10° WNW 06:12:03 31° SW 06:15:00 10° S daylight
20 Mar - 17:46:52 10° S 17:49:47 29° SE 17:52:42 10° ENE daylight
21 Mar - 05:17:51 10° NW 05:21:07 87° NE 05:24:24 10° SE visible
21 Mar - 16:57:29 10° SSE 16:58:51 12° SE 17:00:13 10° E daylight
21 Mar - 18:32:38 10° WSW 18:35:12 21° NW 18:37:45 10° N daylight
22 Mar - 04:27:14 10° N 04:30:09 30° NE 04:33:05 10° ESE visible
22 Mar - 17:40:59 10° SW 17:44:13 54° NW 17:47:26 10° NNE daylight
23 Mar - 03:37:37 10° NNE 03:39:09 13° NE 03:40:39 10° E night (unlit)
23 Mar - 05:13:04 10° WNW 05:15:31 20° SW 05:18:01 10° S visible
23 Mar - 16:50:03 10° SSW 16:53:15 49° SE 16:56:27 10° NE daylight
24 Mar - 04:21:23 10° NW 04:24:34 53° SW 04:27:46 10° SSE visible
24 Mar - 15:59:53 10° S 16:02:17 19° SE 16:04:41 10° ENE daylight
24 Mar - 17:36:55 10° W 17:38:40 14° NW 17:40:25 10° NNW daylight
25 Mar - 03:30:25 10° NNW 03:33:36 50° NE 03:36:46 10° SE night (unlit)
25 Mar - 16:44:37 10° WSW 16:47:37 32° NW 16:50:37 10° NNE daylight
26 Mar - 02:40:08 10° N 02:42:33 19° NE 02:44:59 10° E night (unlit)
26 Mar - 04:17:21 10° W 04:18:54 13° SW 04:20:28 10° SSW night (unlit)
26 Mar - 15:53:18 10° SW 15:56:36 86° SE 15:59:53 10° NE daylight
27 Mar - 03:24:57 10° WNW 03:27:55 31° SW 03:30:52 10° S night (unlit)
27 Mar - 15:02:41 10° S 15:05:36 29° SE 15:08:31 10° ENE daylight
28 Mar - 02:33:38 10° NW 02:36:54 87° ENE 02:40:10 10° SE night (unlit)
28 Mar - 14:13:13 10° SSE 14:14:35 12° SE 14:15:58 10° E daylight
28 Mar - 15:48:22 10° WSW 15:50:56 21° NW 15:53:29 10° N daylight
29 Mar - 01:42:57 10° N 01:45:51 30° NE 01:48:46 10° ESE night (unlit)
29 Mar - 14:56:38 10° SW 14:59:52 55° NW 15:03:05 10° NNE daylight
